CST,Max TemperatureF,Mean TemperatureF,Min TemperatureF,Max Dew PointF,MeanDew PointF,Min DewpointF,Max Humidity, Mean Humidity, Min Humidity, Max Sea Level PressureIn, Mean Sea Level PressureIn, Min Sea Level PressureIn, Max VisibilityMiles, Mean VisibilityMiles, Min VisibilityMiles, Max Wind SpeedMPH, Mean Wind SpeedMPH, Max Gust SpeedMPH,PrecipitationIn, CloudCover, Events, WindDirDegrees
2012-12-1,78,66,54,63,59,53,93,74,54,30.24,30.19,30.14,10,10,7,12,3,16,0.00,4,,173
2012-12-2,80,70,59,63,61,57,97,76,54,30.25,30.20,30.16,10,6,1,13,5,18,0.00,1,,166
2012-12-3,78,70,62,64,62,60,93,75,56,30.18,30.14,30.10,10,10,9,20,6,26,0.00,4,,155
2012-12-4,71,66,61,67,64,59,100,92,84,30.21,30.15,30.11,10,6,1,16,4,23,2.30,7,Rain,29
2012-12-5,65,63,60,61,58,56,97,88,78,30.16,30.11,30.04,10,10,7,16,9,20,0.00,7,,1
2012-12-6,69,64,58,60,58,55,97,83,68,30.03,29.99,29.93,10,5,0,8,2,9,0.00,7,Fog,3
2012-12-7,75,63,51,59,56,50,100,75,50,29.99,29.93,29.88,10,5,0,8,2,12,0.00,1,Fog,214
2012-12-8,75,66,56,63,59,54,93,79,64,29.99,29.93,29.91,10,7,2,12,3,15,0.00,3,,186
2012-12-9,81,71,60,70,65,59,97,76,54,29.98,29.92,29.87,10,9,5,21,6,25,T,4,,176
2012-12-10,72,58,43,70,56,34,93,82,70,30.06,29.88,29.76,10,7,1,30,11,41,1.43,6,Rain-Thunderstorm,291
2012-12-11,52,45,37,35,33,31,82,63,44,30.20,30.12,30.04,10,10,10,14,7,17,0.00,0,,17
2012-12-12,57,47,36,34,29,20,79,52,24,30.33,30.27,30.19,10,10,10,14,7,17,0.00,1,,7
2012-12-13,63,48,32,38,30,24,82,53,23,30.39,30.31,30.25,10,10,10,10,2,13,0.00,0,,53
2012-12-14,69,52,35,53,46,32,92,70,48,30.28,30.18,30.06,10,9,4,10,3,15,0.00,0,,134
2012-12-15,75,67,58,64,59,53,87,78,68,30.06,30.00,29.94,10,10,6,18,7,24,0.00,7,,156
2012-12-16,77,70,63,66,62,59,93,79,64,29.92,29.86,29.81,10,8,2,31,7,45,0.74,7,Rain-Thunderstorm,172
2012-12-17,69,60,51,63,56,41,100,72,44,29.95,29.84,29.80,10,6,0,13,4,18,0.43,3,Fog-Rain-Thunderstorm,278
2012-12-18,71,58,44,53,47,42,93,65,37,30.01,29.97,29.94,10,10,10,13,4,17,0.00,0,,176
2012-12-19,77,67,56,70,62,52,93,79,64,29.98,29.89,29.79,10,10,8,18,10,28,0.00,4,,167
2012-12-20,74,58,41,70,41,21,87,59,30,30.37,30.05,29.80,10,9,6,37,16,48,0.05,3,Rain,299
2012-12-21,60,47,33,38,23,11,86,51,16,30.50,30.41,30.36,10,10,10,15,6,23,0.00,0,,331
2012-12-22,64,49,33,41,33,24,100,62,23,30.43,30.35,30.22,10,7,0,10,3,13,0.00,0,Fog,177
2012-12-23,68,60,51,61,54,41,87,78,68,30.21,30.06,29.95,10,10,10,14,6,20,0.00,6,,168
2012-12-24,77,68,59,64,62,57,93,74,54,29.96,29.90,29.84,10,8,2,17,6,22,0.01,4,,247
2012-12-25,74,59,44,66,60,34,100,80,60,29.88,29.69,29.52,10,8,0,36,15,46,0.34,6,Fog-Rain,193
2012-12-26,45,39,33,34,32,30,89,76,62,30.19,30.09,29.89,10,10,8,25,12,32,0.00,6,,334
2012-12-27,53,42,31,44,36,28,100,82,63,30.20,30.10,29.98,10,8,4,9,3,15,0.00,5,,79
2012-12-28,69,58,46,64,55,38,93,84,74,30.06,29.84,29.73,10,7,0,26,11,35,2.18,8,Fog-Rain,263
2012-12-29,49,43,37,37,30,25,76,58,39,30.44,30.29,30.07,10,10,10,20,11,25,0.00,3,,334
2012-12-30,53,42,31,36,28,24,82,60,38,30.53,30.43,30.32,10,10,10,12,5,17,0.00,0,,54
2012-12-31,63,53,43,57,44,30,84,69,53,30.31,30.17,30.00,10,10,10,14,5,21,0.00,7,,120